VVWC41 KNZY-

Flight info

Callsign VVWC41
Flight time N/A
Altitude VFR
Route VFR OPR
Aircraft H60/M-VGD/C

Departure

Time 2026-04-26 01:40
Airport North Island Naval Air Station-Halsey Field (KNZY)

Arrival

Time N/A
Airport -
Time Latitude Longitude Altitude Speed Heading
2026-04-26 01:25 32.71248 -117.20200 20 ft 0 kts
2026-04-26 01:25 32.71250 -117.20199 26 ft 2 kts
2026-04-26 01:26 32.71275 -117.20233 45 ft 21 kts 277°
2026-04-26 01:26 32.71300 -117.20662 221 ft 85 kts 268°
2026-04-26 01:26 32.71201 -117.21495 309 ft 112 kts 258°
2026-04-26 01:26 32.70736 -117.22288 270 ft 121 kts 225°
2026-04-26 01:27 32.69979 -117.22776 326 ft 129 kts 199°
2026-04-26 01:27 32.69079 -117.22967 319 ft 133 kts 184°
2026-04-26 01:27 32.68165 -117.22795 380 ft 130 kts 171°
2026-04-26 01:27 32.67346 -117.22504 418 ft 117 kts 168°
2026-04-26 01:28 32.66571 -117.22371 397 ft 111 kts 184°
2026-04-26 01:28 32.65818 -117.22104 384 ft 116 kts 154°
2026-04-26 01:28 32.65131 -117.21682 279 ft 106 kts 158°
2026-04-26 01:28 32.64477 -117.21420 275 ft 94 kts 180°
2026-04-26 01:29 32.63875 -117.21507 309 ft 82 kts 213°
2026-04-26 01:29 32.63468 -117.21969 216 ft 80 kts 237°
2026-04-26 01:29 32.63208 -117.22529 192 ft 75 kts 252°
2026-04-26 01:29 32.63154 -117.23105 221 ft 68 kts 307°
2026-04-26 01:30 32.63592 -117.23312 248 ft 77 kts 353°
2026-04-26 01:30 32.64114 -117.23226 346 ft 75 kts
2026-04-26 01:30 32.64680 -117.23196 183 ft 87 kts 354°
2026-04-26 01:30 32.65264 -117.23101 204 ft 79 kts 54°
2026-04-26 01:31 32.65313 -117.22499 223 ft 82 kts 142°
2026-04-26 01:31 32.64879 -117.22034 263 ft 89 kts 142°
2026-04-26 01:31 32.64883 -117.21466 261 ft 77 kts 13°
2026-04-26 01:31 32.65347 -117.21617 236 ft 79 kts 317°
2026-04-26 01:32 32.65770 -117.22089 340 ft 79 kts 288°
2026-04-26 01:32 32.65527 -117.22521 336 ft 92 kts 179°
2026-04-26 01:32 32.64928 -117.22101 383 ft 109 kts 144°
2026-04-26 01:32 32.64359 -117.21507 440 ft 111 kts 143°
2026-04-26 01:33 32.63774 -117.20898 435 ft 109 kts 143°
2026-04-26 01:33 32.63287 -117.20260 435 ft 98 kts 119°
2026-04-26 01:33 32.63093 -117.19504 427 ft 108 kts 106°
2026-04-26 01:33 32.62948 -117.18563 456 ft 118 kts 101°
2026-04-26 01:34 32.62806 -117.17633 445 ft 112 kts 101°
2026-04-26 01:34 32.62725 -117.16705 453 ft 115 kts 97°
2026-04-26 01:34 32.62651 -117.15775 451 ft 113 kts 100°
2026-04-26 01:34 32.62376 -117.14919 448 ft 113 kts 125°
2026-04-26 01:35 32.61809 -117.14288 455 ft 113 kts 155°
2026-04-26 01:35 32.61155 -117.13956 461 ft 91 kts 174°
2026-04-26 01:35 32.60455 -117.13781 460 ft 103 kts 174°
2026-04-26 01:35 32.59748 -117.13647 448 ft 110 kts 179°
2026-04-26 01:36 32.59033 -117.13549 442 ft 105 kts 182°
2026-04-26 01:36 32.58340 -117.13466 452 ft 100 kts 184°
2026-04-26 01:36 32.57617 -117.13427 444 ft 104 kts 185°
2026-04-26 01:37 32.56208 -117.13379 457 ft 98 kts 185°
2026-04-26 01:37 32.55515 -117.13369 456 ft 93 kts 178°
2026-04-26 01:37 32.55003 -117.12998 458 ft 88 kts 139°
2026-04-26 01:37 32.54782 -117.12358 455 ft 85 kts 105°
2026-04-26 01:38 32.54718 -117.11531 449 ft 120 kts 102°
2026-04-26 01:38 32.54626 -117.10633 451 ft 100 kts 99°
2026-04-26 01:38 32.54566 -117.09753 444 ft 109 kts 98°
2026-04-26 01:38 32.54500 -117.08821 454 ft 115 kts 98°
2026-04-26 01:39 32.54431 -117.07883 443 ft 112 kts 98°
2026-04-26 01:39 32.54382 -117.06955 450 ft 114 kts 91°
2026-04-26 01:39 32.54416 -117.06038 456 ft 111 kts 90°
2026-04-26 01:39 32.54474 -117.05095 451 ft 117 kts 89°
2026-04-26 01:40 32.54501 -117.04145 423 ft 112 kts 88°
2026-04-26 01:40 32.54595 -117.03159 439 ft 125 kts 81°
2026-04-26 01:40 32.54741 -117.02217 624 ft 117 kts 81°
2026-04-26 01:40 32.54871 -117.01277 683 ft 115 kts 81°
2026-04-26 01:41 32.54992 -117.00334 732 ft 114 kts 81°
2026-04-26 01:41 32.55130 -116.99410 716 ft 110 kts 81°
2026-04-26 01:41 32.55277 -116.98472 726 ft 116 kts 81°
2026-04-26 01:41 32.55413 -116.97545 1027 ft 112 kts 83°
2026-04-26 01:42 32.55539 -116.96620 1079 ft 116 kts 83°
2026-04-26 01:42 32.55641 -116.95674 1085 ft 116 kts 83°
2026-04-26 01:42 32.55766 -116.94740 1084 ft 116 kts 83°
2026-04-26 01:42 32.55894 -116.93802 1085 ft 116 kts 83°
2026-04-26 01:43 32.56016 -116.92864 1088 ft 115 kts 83°
2026-04-26 01:43 32.56118 -116.91894 1152 ft 129 kts 90°
2026-04-26 01:43 32.56162 -116.90763 1747 ft 145 kts 91°
2026-04-26 01:43 32.56166 -116.89499 2076 ft 158 kts 92°
2026-04-26 01:44 32.56160 -116.88189 2364 ft 155 kts 93°
2026-04-26 01:44 32.56152 -116.86907 2324 ft 156 kts 93°
2026-04-26 01:44 32.56175 -116.85599 2366 ft 159 kts 93°
2026-04-26 01:44 32.56206 -116.84300 2378 ft 155 kts 90°
2026-04-26 01:45 32.56277 -116.82970 2363 ft 167 kts 90°
2026-04-26 01:45 32.56345 -116.81643 2379 ft 160 kts 90°
2026-04-26 01:45 32.56403 -116.80329 2375 ft 157 kts 90°
2026-04-26 01:45 32.56471 -116.79010 2387 ft 162 kts 90°
2026-04-26 01:46 32.56527 -116.77679 2381 ft 163 kts 90°
2026-04-26 01:46 32.56608 -116.76322 2375 ft 165 kts 90°
2026-04-26 01:46 32.56670 -116.75018 2377 ft 162 kts 89°
2026-04-26 01:46 32.56734 -116.73706 2377 ft 156 kts 89°
2026-04-26 01:47 32.56813 -116.72409 2486 ft 140 kts 83°
2026-04-26 01:47 32.57054 -116.71511 2893 ft 101 kts 63°
2026-04-26 01:47 32.57174 -116.70843 3071 ft 64 kts 153°
2026-04-26 01:47 32.56818 -116.70689 3234 ft 58 kts 208°
2026-04-26 01:48 32.56639 -116.71072 3158 ft 65 kts 272°
2026-04-26 01:48 32.56911 -116.71347 3274 ft 45 kts 35°
2026-04-26 01:48 32.57046 -116.71033 3092 ft 52 kts 122°
2026-04-26 01:48 32.56812 -116.70936 2962 ft 35 kts 229°
2026-04-26 01:49 32.56815 -116.71187 2695 ft 30 kts
2026-04-26 01:49 32.56883 -116.71153 2574 ft 7 kts 63°
2026-04-26 01:49 32.56876 -116.71148 2533 ft 0 kts 64°
2026-04-26 01:50 32.56867 -116.71142 2551 ft 3 kts 51°
2026-04-26 01:50 32.56851 -116.71126 2613 ft 3 kts 49°
2026-04-26 01:50 32.56841 -116.71116 2632 ft 1 kts 49°
2026-04-26 01:50 32.56837 -116.71111 2588 ft 1 kts 49°
2026-04-26 01:51 32.56839 -116.71113 2564 ft 0 kts 45°
2026-04-26 01:51 32.56841 -116.71127 2593 ft 4 kts 45°
2026-04-26 01:51 32.56845 -116.71156 2564 ft 2 kts 43°
2026-04-26 01:51 32.56841 -116.71150 2528 ft 1 kts 43°
2026-04-26 01:52 32.56851 -116.71163 2509 ft 0 kts 40°
2026-04-26 01:52 32.56852 -116.71164 2493 ft 0 kts 40°
2026-04-26 01:53 32.56852 -116.71163 2496 ft 0 kts 40°
2026-04-26 01:54 32.56852 -116.71164 2496 ft 0 kts 40°
2026-04-26 01:54 32.56852 -116.71163 2497 ft 0 kts 40°
2026-04-26 01:55 32.56852 -116.71164 2496 ft 0 kts 40°
2026-04-26 01:55 32.56841 -116.71146 2539 ft 3 kts 33°
2026-04-26 01:55 32.56835 -116.71135 2569 ft 1 kts 33°
2026-04-26 01:55 32.56831 -116.71129 2588 ft 1 kts 33°
2026-04-26 01:56 32.56827 -116.71122 2612 ft 1 kts 33°
2026-04-26 01:56 32.56829 -116.71118 2642 ft 8 kts 23°
2026-04-26 01:56 32.56964 -116.71208 2753 ft 27 kts 300°
2026-04-26 01:56 32.57189 -116.71483 2881 ft 71 kts 300°
2026-04-26 01:57 32.57550 -116.72121 2912 ft 112 kts 296°
2026-04-26 01:57 32.57994 -116.73004 2628 ft 136 kts 297°
2026-04-26 01:57 32.58479 -116.74028 2619 ft 148 kts 296°
2026-04-26 01:57 32.58975 -116.75098 2801 ft 140 kts 295°
2026-04-26 01:58 32.59456 -116.76128 3156 ft 148 kts 296°
2026-04-26 01:58 32.59966 -116.77182 3149 ft 149 kts 295°
2026-04-26 01:58 32.60485 -116.78246 3138 ft 149 kts 295°
2026-04-26 01:58 32.61022 -116.79278 3129 ft 149 kts 296°
2026-04-26 01:59 32.61567 -116.80310 3124 ft 149 kts 296°
2026-04-26 01:59 32.62100 -116.81370 3124 ft 154 kts 296°
2026-04-26 01:59 32.62725 -116.82395 3131 ft 146 kts 302°
2026-04-26 01:59 32.63362 -116.83383 3132 ft 153 kts 302°
2026-04-26 02:00 32.64013 -116.84376 3130 ft 150 kts 302°
2026-04-26 02:00 32.64606 -116.85350 3131 ft 135 kts 301°
2026-04-26 02:00 32.65155 -116.86366 3062 ft 145 kts 299°
2026-04-26 02:00 32.65714 -116.87390 2790 ft 149 kts 299°
2026-04-26 02:01 32.66210 -116.88350 2800 ft 144 kts 298°
2026-04-26 02:01 32.66571 -116.89071 2807 ft 150 kts 297°
2026-04-26 02:01 32.67094 -116.90131 2799 ft 151 kts 297°
2026-04-26 02:01 32.67797 -116.91545 2806 ft 151 kts 297°
2026-04-26 02:02 32.68324 -116.92624 2805 ft 151 kts 297°
2026-04-26 02:02 32.68675 -116.93351 2803 ft 151 kts 297°
2026-04-26 02:02 32.69196 -116.94424 2802 ft 150 kts 297°
2026-04-26 02:02 32.69724 -116.95470 2806 ft 152 kts 297°
2026-04-26 02:03 32.70267 -116.96552 2811 ft 150 kts 297°
2026-04-26 02:03 32.70812 -116.97594 2811 ft 151 kts 297°
2026-04-26 02:03 32.71368 -116.98652 2811 ft 152 kts 297°
2026-04-26 02:03 32.71917 -116.99728 2813 ft 153 kts 297°
2026-04-26 02:04 32.72461 -117.00805 2810 ft 151 kts 297°
2026-04-26 02:04 32.72929 -117.01923 2809 ft 152 kts 288°
2026-04-26 02:04 32.73190 -117.03129 2807 ft 151 kts 277°
2026-04-26 02:04 32.73291 -117.04299 2811 ft 132 kts 273°
2026-04-26 02:05 32.73379 -117.05499 2816 ft 145 kts 273°
2026-04-26 02:05 32.73468 -117.06708 2813 ft 149 kts 273°
2026-04-26 02:05 32.73575 -117.07939 2810 ft 151 kts 276°
2026-04-26 02:05 32.73867 -117.09143 2812 ft 149 kts 287°
2026-04-26 02:06 32.74203 -117.10320 2810 ft 151 kts 287°
2026-04-26 02:06 32.74533 -117.11494 2574 ft 146 kts 285°
2026-04-26 02:06 32.74822 -117.12593 2242 ft 130 kts 283°
2026-04-26 02:06 32.75059 -117.13537 2090 ft 109 kts 280°
2026-04-26 02:07 32.75129 -117.14351 1821 ft 91 kts 263°
2026-04-26 02:07 32.75042 -117.15024 1473 ft 71 kts 259°
2026-04-26 02:07 32.74993 -117.15489 1107 ft 46 kts 262°
2026-04-26 02:07 32.74992 -117.15823 818 ft 32 kts 284°
2026-04-26 02:08 32.75029 -117.15960 640 ft 5 kts 290°
2026-04-26 02:08 32.75055 -117.15993 642 ft 5 kts 288°
2026-04-26 02:08 32.75067 -117.15995 590 ft 2 kts 290°
2026-04-26 02:08 32.75068 -117.15989 577 ft 0 kts 289°
2026-04-26 02:09 32.75073 -117.15995 561 ft 5 kts 291°
2026-04-26 02:09 32.75101 -117.16025 486 ft 5 kts 289°
2026-04-26 02:09 32.75120 -117.16050 397 ft 3 kts 286°
2026-04-26 02:09 32.75125 -117.16059 359 ft 1 kts 278°
2026-04-26 02:10 32.75126 -117.16063 347 ft 0 kts 287°
2026-04-26 02:11 32.75126 -117.16064 346 ft 0 kts 287°